sat.trackr.live / text

‹ back to catalog

STARLINK-2720

NORAD 48653 · 2021-044R

PAYLOAD ACTIVE UNKNOWN

§ Identity

Operator
Country
US
Launch date
2021-05-26
Launch site
AFETR
Launch vehicle
Mass (kg)
RCS (m²)

Purposes: comms

External: N2YO · Heavens-Above · Gunter

§ Orbital elements

Epoch: 2026-05-25T04:40:33.964320Z

Period
94.01 min
Inclination
53.1594°
Eccentricity
0.0001249
Mean motion
15.31702425 rev/d
Perigee alt
469.9 km
Apogee alt
471.6 km
Semi-major
6,848.9 km
B*
3.6570e-5
RAAN
118.0418°
Arg perigee
87.4609°
Mean anomaly
272.6535°
Rev number
27,554

§ Raw data

STARLINK-27201 48653U 21044R   26145.19483755  .00000770  00000+0  36570-4 0  99952 48653  53.1594 118.0418 0001249  87.4609 272.6535 15.31702425275541

JSON: /api/v1/satellites/48653 · /tle

For live sub-satellite position, see the globe view (requires WebGL).

§ Visibility from observer

Set your observer location to see the next 7 days of passes ≥ 10°. The values pass through the URL so the page stays shareable.

No JS? Fill the form by hand. The geolocation button needs JavaScript.